This is the latest recevied weather packets stored in our database for station/object W0AKY-13. If no packets are shown the sender has not sent any weather packets the latest 10 day(s).
| Time | Temp. | Humidity | Pressure | Rain* | Wind** | Luminosity | Snow |
|---|---|---|---|---|---|---|---|
| 1777986978 | 9.44° C | 83% | 1013.8 hPa | 0 mm | - | 16 W/m² | - |
| 1777986676 | 9.44° C | 83% | 1014.1 hPa | 0 mm | - | 14 W/m² | - |
| 1777986374 | 8.89° C | 82% | 1014.1 hPa | 0 mm | - | 17 W/m² | - |
| 1777986072 | 8.89° C | 83% | 1014.3 hPa | 0 mm | - | 16 W/m² | - |
| 1777985768 | 8.89° C | 86% | 1014.1 hPa | 0 mm | - | 16 W/m² | - |
| 1777985465 | 8.89° C | 88% | 1014.2 hPa | 0 mm | - | 13 W/m² | - |
| 1777985162 | 8.89° C | 89% | 1014 hPa | 0 mm | - | 10 W/m² | - |
| 1777984858 | 8.89° C | 89% | 1013.9 hPa | 0 mm | - | 7 W/m² | - |
| 1777984554 | 8.89° C | 90% | 1013.3 hPa | 0 mm | - | 6 W/m² | - |
| 1777984251 | 8.89° C | 91% | 1013.3 hPa | 0 mm | - | 5 W/m² | - |
| 1777983948 | 8.89° C | 91% | 1013.1 hPa | 0 mm | - | 5 W/m² | - |
| 1777983645 | 8.89° C | 91% | 1012.6 hPa | 0 mm | - | 6 W/m² | - |
| 1777983341 | 8.89° C | 90% | 1012.6 hPa | 0 mm | - | 5 W/m² | - |
| 1777983038 | 8.89° C | 90% | 1012.5 hPa | 0 mm | - | 5 W/m² | - |
| 1777982735 | 8.33° C | 89% | 1012.5 hPa | 0 mm | - | 6 W/m² | - |
| 1777982430 | 8.33° C | 89% | 1012.3 hPa | 0 mm | - | 5 W/m² | - |
| 1777982125 | 8.33° C | 89% | 1012.3 hPa | 0 mm | - | 5 W/m² | - |
| 1777981823 | 8.89° C | 88% | 1012.4 hPa | 0 mm | - | 4 W/m² | - |
| 1777981520 | 8.89° C | 87% | 1012.2 hPa | 0 mm | - | 3 W/m² | - |
| 1777981216 | 8.33° C | 87% | 1012.3 hPa | 0 mm | - | 3 W/m² | - |
| 1777980912 | 8.33° C | 86% | 1012.2 hPa | 0 mm | - | 2 W/m² | - |
| 1777980609 | 8.33° C | 86% | 1012.1 hPa | 0 mm | - | 2 W/m² | - |
| 1777980304 | 8.89° C | 86% | 1012.2 hPa | 0 mm | - | 1 W/m² | - |
| 1777980002 | 8.89° C | 86% | 1012.4 hPa | 0 mm | - | 1 W/m² | - |
| 1777979696 | 8.89° C | 85% | 1012.4 hPa | 0 mm | - | 1 W/m² | - |
* Rain latest hour (hover to see other rain measurements)
** Current wind speed in m/s (hover to see current wind gust speed)